Home > Weather > Myrtle Beach > Past weeks

Flag for U.S.A. Weather for the Past 2 Weeks in Myrtle Beach, South Carolina, U.S.A.

Now
39 °F

Rain. Fog.


Feels Like: 30 °F
Forecast: 37 / 41 °F
Wind: 18 mph from Northeast

Location: Myrtle Beach Air Force Base

Current Time: Feb 7, 2016 at 8:47:40 AM

Latest Report: Feb 7, 2016 at 7:45 AM


Visibility: 5 mi

Pressure: 29.95 "Hg

Humidity: 70%

Dew point: 30 °F

Location of Myrtle BeachLocation

Historic Weather in Myrtle Beach — Graph

°F

Myrtle Beach Temperature Yesterday

Maximum temperature yesterday: 52 °F (at 2:45 PM)
Minimum temperature yesterday: 34 °F (at 3:15 AM)
Average temperature yesterday: 40 °F

High & Low Weather Summary for the Past Weeks

 TemperatureHumidityPressure
High72 °F (Feb 1, 11:47 AM)88% (Jan 27, 8:50 AM)30.43 "Hg (Jan 27, 8:50 AM)
Low28 °F (Jan 25, 4:15 AM)32% (Jan 24, 3:45 PM)29.57 "Hg (Jan 23, 6:35 AM)
Average47 °F67%30.08 "Hg
* Reported Jan 23 6:35 AM — Feb 7 6:45 AM, Myrtle Beach, Weather by CustomWeather, © 2016

Note: Actual official high and low records may vary slightly from our data, if they occured in-between our weather recording intervals... More about our weather records

Advertising

Myrtle Beach Weather History for the Previous 24 Hours

 ConditionsComfort  
Time TempWeatherWind HumidityBarometerVisibility
6:45 AM
Sun, Feb 7
39 °FRain. Fog.14 mph75%29.99 "Hg5 mi
5:55 AM39 °FMostly cloudy.16 mph75%29.99 "Hg10 mi
5:35 AM39 °FLow clouds.16 mph70%29.98 "Hg10 mi
5:15 AM39 °FMostly cloudy.16 mph75%29.99 "Hg10 mi
4:55 AM39 °FMostly cloudy.13 mph75%29.99 "Hg10 mi
4:35 AM39 °FPartly cloudy.18 mph70%29.99 "Hg10 mi
4:15 AM39 °FOvercast.17 mph70%30.00 "Hg10 mi
3:55 AM39 °FOvercast.17 mph70%30.02 "Hg10 mi
3:35 AM39 °FOvercast.23 mph70%30.00 "Hg10 mi
3:15 AM39 °FOvercast.25 mph65%30.04 "Hg10 mi
2:55 AM39 °FOvercast.24 mph65%30.03 "Hg10 mi
2:35 AM39 °FOvercast.23 mph70%30.07 "Hg10 mi
2:15 AM39 °FMostly cloudy.22 mph70%30.09 "Hg10 mi
1:55 AM39 °FMostly cloudy.18 mph70%30.09 "Hg10 mi
1:35 AM39 °FMostly cloudy.18 mph70%30.13 "Hg10 mi
1:15 AM39 °FMostly cloudy.18 mph70%30.13 "Hg10 mi
12:55 AM39 °FOvercast.14 mph65%30.15 "Hg10 mi
12:35 AM39 °FOvercast.17 mph65%30.14 "Hg10 mi
12:15 AM39 °FMostly cloudy.13 mph70%30.17 "Hg10 mi
11:55 PM
Sat, Feb 6
39 °FMostly cloudy.14 mph70%30.17 "Hg10 mi
11:35 PM39 °FOvercast.10 mph70%30.20 "Hg10 mi
11:15 PM41 °FOvercast.12 mph66%30.20 "Hg10 mi
9:50 PM43 °FLight rain. Overcast.12 mph57%30.23 "Hg10 mi
8:45 PM45 °FOvercast.12 mph53%30.21 "Hg10 mi
7:45 PM46 °FOvercast.9 mph46%30.28 "Hg10 mi
6:45 PM48 °FOvercast.15 mph43%30.26 "Hg10 mi
5:45 PM48 °FOvercast.14 mph46%30.28 "Hg10 mi
4:45 PM48 °FOvercast.14 mph46%30.29 "Hg10 mi
3:45 PM52 °FMostly cloudy.12 mph41%30.29 "Hg10 mi
2:45 PM52 °FPartly sunny.7 mph38%30.29 "Hg10 mi
1:45 PM50 °FPartly sunny.13 mph40%30.30 "Hg10 mi
11:45 AM50 °FScattered clouds.9 mph43%30.38 "Hg10 mi
10:45 AM48 °FPartly sunny.9 mph46%30.42 "Hg10 mi
9:45 AM45 °FPartly sunny.10 mph49%30.43 "Hg10 mi
8:50 AM41 °FScattered clouds.13 mph61%30.42 "Hg10 mi
Weather by CustomWeather, © 2016

See weather overviewHow to use our weather pages